| time (UTC) | temp F | wind direction | speed MPH | gust MPH | rain 1hr in | rain 24hr in | rain mn in | humidity % | barometer mb |
| 20260902224018 | 70 | 203 | 2.0 | 5.0 | 0.00 | 0.01 | 0.01 | 94 | 1017.7 |
| 20260902223518 | 70 | 175 | 1.0 | 8.0 | 0.00 | 0.01 | 0.01 | 94 | 1017.7 |
| 20260902222518 | 70 | 0 | 2.0 | 6.0 | 0.00 | 0.01 | 0.01 | 94 | 1017.7 |
| 20260902222016 | 70 | 175 | 0.0 | 4.0 | 0.00 | 0.01 | 0.01 | 94 | 1017.9 |
| 20260902221536 | 70 | 226 | 0.0 | 4.0 | 0.00 | 0.01 | 0.01 | 95 | 1017.8 |
| 20260902221016 | 70 | 144 | 1.0 | 6.0 | 0.00 | 0.01 | 0.01 | 94 | 1018.0 |
| 20260902220518 | 70 | 0 | 1.0 | 6.0 | 0.00 | 0.01 | 0.01 | 94 | 1018.2 |
| 20260902220039 | 70 | 191 | 2.0 | 6.0 | 0.00 | 0.01 | 0.01 | 94 | 1018.2 |
| 20260902215520 | 70 | 191 | 2.0 | 7.0 | 0.00 | 0.01 | 0.01 | 94 | 1018.3 |
| 20260902215020 | 70 | 205 | 3.0 | 7.0 | 0.00 | 0.01 | 0.01 | 94 | 1018.3 |
| 20260902214538 | 70 | 194 | 0.0 | 4.0 | 0.00 | 0.01 | 0.01 | 95 | 1018.5 |
| 20260902214020 | 70 | 211 | 1.0 | 4.0 | 0.00 | 0.01 | 0.01 | 95 | 1018.5 |
| 20260902213519 | 70 | 151 | 0.0 | 4.0 | 0.00 | 0.01 | 0.01 | 95 | 1018.4 |
| 20260902212519 | 70 | 0 | 0.0 | 6.0 | 0.00 | 0.01 | 0.01 | 95 | 1018.4 |
| 20260902212017 | 70 | 173 | 2.0 | 5.0 | 0.00 | 0.01 | 0.01 | 95 | 1018.4 |
| 20260902211539 | 70 | 0 | 1.0 | 5.0 | 0.00 | 0.01 | 0.01 | 95 | 1018.2 |
| 20260902211021 | 70 | 209 | 1.0 | 5.0 | 0.00 | 0.01 | 0.01 | 96 | 1018.0 |
| 20260902210522 | 70 | 126 | 2.0 | 7.0 | 0.00 | 0.01 | 0.01 | 96 | 1018.1 |
| 20260902210035 | 70 | 167 | 1.0 | 7.0 | 0.00 | 0.01 | 0.01 | 96 | 1018.0 |
| 20260902205520 | 70 | 207 | 1.0 | 6.0 | 0.00 | 0.01 | 0.01 | 96 | 1017.9 |
| 20260902205018 | 70 | 193 | 1.0 | 5.0 | 0.00 | 0.01 | 0.01 | 96 | 1018.0 |
| 20260902204017 | 70 | 162 | 2.0 | 8.0 | 0.00 | 0.01 | 0.01 | 96 | 1018.1 |
| 20260902203524 | 70 | 130 | 0.0 | 7.0 | 0.00 | 0.01 | 0.01 | 96 | 1018.1 |
| 20260902203035 | 70 | 0 | 0.0 | 2.0 | 0.00 | 0.01 | 0.01 | 96 | 1018.5 |
| 20260902202522 | 70 | 0 | 0.0 | 2.0 | 0.00 | 0.01 | 0.01 | 96 | 1018.6 |
| 20260902200521 | 69 | 173 | 0.0 | 2.0 | 0.00 | 0.01 | 0.01 | 96 | 1019.0 |
| 20260902195519 | 69 | 0 | 0.0 | 0.0 | 0.00 | 0.01 | 0.01 | 96 | 1019.2 |
| 20260902195016 | 69 | 0 | 0.0 | 0.0 | 0.00 | 0.01 | 0.01 | 96 | 1019.1 |
| 20260902194018 | 69 | 0 | 0.0 | 4.0 | 0.00 | 0.01 | 0.01 | 96 | 1019.1 |
| 20260902193519 | 69 | 0 | 1.0 | 4.0 | 0.00 | 0.01 | 0.01 | 96 | 1018.9 |
| 20260902192519 | 69 | 173 | 0.0 | 3.0 | 0.00 | 0.01 | 0.01 | 96 | 1018.9 |
| 20260902192018 | 69 | 185 | 1.0 | 3.0 | 0.00 | 0.01 | 0.01 | 96 | 1019.0 |
| 20260902191020 | 69 | 182 | 0.0 | 5.0 | 0.00 | 0.01 | 0.01 | 96 | 1018.8 |
| 20260902190520 | 69 | 0 | 1.0 | 5.0 | 0.00 | 0.01 | 0.01 | 96 | 1018.8 |
| 20260902185519 | 69 | 127 | 1.0 | 5.0 | 0.00 | 0.01 | 0.01 | 96 | 1018.9 |
| 20260902185020 | 69 | 185 | 0.0 | 5.0 | 0.00 | 0.01 | 0.01 | 96 | 1018.9 |
| 20260902184550 | 69 | 0 | 1.0 | 8.0 | 0.00 | 0.01 | 0.01 | 96 | 1018.9 |
| 20260902184020 | 69 | 0 | 1.0 | 8.0 | 0.00 | 0.01 | 0.01 | 96 | 1018.9 |
| 20260902182520 | 70 | 182 | 1.0 | 4.0 | 0.00 | 0.01 | 0.01 | 96 | 1019.2 |
| 20260902182019 | 70 | 172 | 1.0 | 5.0 | 0.00 | 0.01 | 0.01 | 97 | 1019.2 |
| 20260902181021 | 70 | 192 | 1.0 | 7.0 | 0.00 | 0.01 | 0.01 | 97 | 1019.5 |
| 20260902180518 | 70 | 142 | 0.0 | 7.0 | 0.00 | 0.01 | 0.01 | 97 | 1019.5 |
| 20260902175517 | 70 | 188 | 1.0 | 7.0 | 0.00 | 0.01 | 0.01 | 97 | 1019.7 |
| 20260902175017 | 70 | 126 | 1.0 | 7.0 | 0.00 | 0.01 | 0.01 | 97 | 1020.0 |
| 20260902174019 | 70 | 167 | 0.0 | 4.0 | 0.00 | 0.01 | 0.01 | 98 | 1020.0 |
| 20260902173519 | 69 | 167 | 0.0 | 4.0 | 0.00 | 0.01 | 0.01 | 98 | 1020.0 |
| 20260902172521 | 69 | 0 | 0.0 | 4.0 | 0.00 | 0.01 | 0.01 | 98 | 1020.1 |
| 20260902172020 | 69 | 0 | 0.0 | 5.0 | 0.00 | 0.01 | 0.01 | 98 | 1020.2 |
| 20260902171020 | 69 | 198 | 2.0 | 5.0 | 0.00 | 0.01 | 0.01 | 98 | 1020.1 |
| 20260902170523 | 69 | 0 | 0.0 | 5.0 | 0.00 | 0.01 | 0.01 | 98 | 1020.1 |
| 20260902165520 | 69 | 0 | 0.0 | 4.0 | 0.00 | 0.01 | 0.01 | 98 | 1019.9 |
| 20260902165020 | 69 | 157 | 0.0 | 6.0 | 0.00 | 0.01 | 0.01 | 98 | 1019.8 |
| 20260902164018 | 69 | 157 | 0.0 | 3.0 | 0.00 | 0.01 | 0.01 | 98 | 1019.6 |
| 20260902163518 | 69 | 0 | 0.0 | 4.0 | 0.00 | 0.01 | 0.01 | 98 | 1019.7 |
| 20260902162020 | 69 | 0 | 0.0 | 4.0 | 0.00 | 0.01 | 0.01 | 98 | 1019.6 |
| 20260902161020 | 69 | 0 | 0.0 | 4.0 | 0.00 | 0.01 | 0.01 | 98 | 1019.7 |
| 20260902160520 | 69 | 138 | 1.0 | 4.0 | 0.00 | 0.01 | 0.01 | 98 | 1019.5 |
| 20260902154020 | 68 | 0 | 0.0 | 3.0 | 0.00 | 0.01 | 0.01 | 98 | 1019.9 |
| 20260902153523 | 68 | 0 | 0.0 | 3.0 | 0.00 | 0.01 | 0.01 | 98 | 1019.8 |
| 20260902152520 | 68 | 202 | 0.0 | 2.0 | 0.00 | 0.01 | 0.01 | 98 | 1019.9 |
| 20260902152020 | 68 | 0 | 0.0 | 2.0 | 0.00 | 0.01 | 0.01 | 98 | 1019.7 |
| 20260902151020 | 68 | 0 | 0.0 | 2.0 | 0.00 | 0.01 | 0.01 | 98 | 1019.6 |
| 20260902150521 | 68 | 0 | 0.0 | 1.0 | 0.00 | 0.01 | 0.01 | 98 | 1019.7 |
| 20260902145520 | 68 | 0 | 0.0 | 2.0 | 0.00 | 0.01 | 0.01 | 98 | 1019.7 |
| 20260902145021 | 68 | 0 | 0.0 | 2.0 | 0.00 | 0.01 | 0.01 | 98 | 1019.8 |
| 20260902144018 | 68 | 0 | 0.0 | 3.0 | 0.00 | 0.01 | 0.01 | 98 | 1019.8 |
| 20260902143518 | 68 | 205 | 1.0 | 3.0 | 0.00 | 0.01 | 0.01 | 98 | 1020.0 |
| 20260902142518 | 68 | 0 | 1.0 | 5.0 | 0.00 | 0.01 | 0.01 | 98 | 1019.7 |
| 20260902142016 | 68 | 201 | 1.0 | 5.0 | 0.00 | 0.01 | 0.01 | 98 | 1019.9 |
| 20260902141020 | 68 | 0 | 0.0 | 2.0 | 0.00 | 0.01 | 0.01 | 98 | 1020.0 |
| 20260902135521 | 68 | 127 | 0.0 | 3.0 | 0.00 | 0.01 | 0.01 | 98 | 1020.2 |
| 20260902135020 | 68 | 0 | 0.0 | 3.0 | 0.00 | 0.01 | 0.01 | 98 | 1020.0 |
| 20260902134019 | 68 | 0 | 0.0 | 1.0 | 0.00 | 0.01 | 0.01 | 98 | 1019.9 |
| 20260902133521 | 68 | 0 | 0.0 | 1.0 | 0.00 | 0.01 | 0.01 | 98 | 1019.9 |
| 20260902132521 | 68 | 0 | 0.0 | 3.0 | 0.00 | 0.01 | 0.01 | 98 | 1019.9 |
| 20260902132022 | 68 | 0 | 0.0 | 3.0 | 0.00 | 0.01 | 0.01 | 98 | 1019.9 |
| 20260902131018 | 68 | 0 | 0.0 | 2.0 | 0.00 | 0.01 | 0.01 | 98 | 1019.7 |
| 20260902130522 | 68 | 0 | 0.0 | 2.0 | 0.00 | 0.01 | 0.01 | 98 | 1019.7 |
| 20260902125521 | 68 | 107 | 0.0 | 2.0 | 0.00 | 0.01 | 0.01 | 98 | 1019.7 |
| 20260902125025 | 68 | 0 | 0.0 | 2.0 | 0.00 | 0.01 | 0.01 | 98 | 1019.6 |
| 20260902124536 | 68 | 0 | 0.0 | 2.0 | 0.00 | 0.01 | 0.01 | 98 | 1019.6 |
| 20260902124016 | 68 | 87 | 0.0 | 3.0 | 0.00 | 0.01 | 0.01 | 98 | 1019.4 |
| 20260902122519 | 68 | 106 | 0.0 | 2.0 | 0.00 | 0.01 | 0.01 | 98 | 1019.2 |
| 20260902122018 | 68 | 107 | 0.0 | 1.0 | 0.00 | 0.01 | 0.01 | 98 | 1019.2 |
| 20260902121018 | 68 | 0 | 0.0 | 3.0 | 0.00 | 0.01 | 0.01 | 98 | 1019.2 |
| 20260902120520 | 68 | 0 | 0.0 | 3.0 | 0.00 | 0.01 | 0.01 | 98 | 1019.0 |
| 20260902115518 | 69 | 0 | 0.0 | 3.0 | 0.01 | 0.01 | 0.01 | 98 | 1019.1 |
| 20260902115019 | 69 | 0 | 0.0 | 2.0 | 0.01 | 0.01 | 0.01 | 98 | 1019.3 |
| 20260902114018 | 69 | 0 | 0.0 | 4.0 | 0.01 | 0.01 | 0.01 | 98 | 1019.0 |
| 20260902113521 | 69 | 165 | 0.0 | 4.0 | 0.01 | 0.01 | 0.01 | 98 | 1019.2 |
| 20260902112518 | 69 | 0 | 0.0 | 4.0 | 0.01 | 0.01 | 0.01 | 98 | 1018.9 |
| 20260902112018 | 69 | 0 | 0.0 | 2.0 | 0.01 | 0.01 | 0.01 | 98 | 1019.0 |
| 20260902111017 | 70 | 0 | 0.0 | 4.0 | 0.01 | 0.01 | 0.01 | 98 | 1018.9 |
| 20260902110519 | 70 | 223 | 2.0 | 4.0 | 0.01 | 0.01 | 0.01 | 98 | 1019.0 |
| 20260902105522 | 70 | 0 | 0.0 | 1.0 | 0.00 | 0.00 | 0.00 | 98 | 1019.1 |
| 20260902104020 | 70 | 0 | 0.0 | 0.0 | 0.00 | 0.00 | 0.00 | 98 | 1019.1 |
| 20260902103518 | 70 | 0 | 0.0 | 0.0 | 0.00 | 0.00 | 0.00 | 98 | 1019.1 |
| 20260902102522 | 70 | 0 | 0.0 | 0.0 | 0.00 | 0.00 | 0.00 | 98 | 1019.1 |
| 20260902102017 | 70 | 0 | 0.0 | 0.0 | 0.00 | 0.00 | 0.00 | 98 | 1019.2 |
| 20260902101016 | 70 | 0 | 0.0 | 1.0 | 0.00 | 0.00 | 0.00 | 98 | 1019.0 |
| 20260902100518 | 70 | 0 | 0.0 | 1.0 | 0.00 | 0.00 | 0.00 | 98 | 1019.0 |
| 20260902095521 | 70 | 0 | 0.0 | 0.0 | 0.00 | 0.00 | 0.00 | 98 | 1019.0 |
| 20260902095023 | 70 | 0 | 0.0 | 0.0 | 0.00 | 0.00 | 0.00 | 98 | 1019.0 |
| 20260902094018 | 70 | 0 | 0.0 | 2.0 | 0.00 | 0.00 | 0.00 | 98 | 1018.9 |
| 20260902093518 | 70 | 0 | 0.0 | 0.0 | 0.00 | 0.00 | 0.00 | 98 | 1018.9 |
| 20260902092519 | 70 | 0 | 0.0 | 1.0 | 0.00 | 0.00 | 0.00 | 98 | 1018.8 |
| 20260902092019 | 70 | 0 | 0.0 | 1.0 | 0.00 | 0.00 | 0.00 | 98 | 1018.8 |
| 20260902091016 | 70 | 0 | 0.0 | 0.0 | 0.00 | 0.00 | 0.00 | 98 | 1018.9 |
| 20260902090519 | 70 | 0 | 0.0 | 0.0 | 0.00 | 0.00 | 0.00 | 98 | 1018.8 |
| 20260902085518 | 70 | 0 | 0.0 | 0.0 | 0.00 | 0.00 | 0.00 | 98 | 1018.9 |
| 20260902085020 | 70 | 0 | 0.0 | 0.0 | 0.00 | 0.00 | 0.00 | 98 | 1018.9 |
| 20260902084018 | 70 | 0 | 0.0 | 1.0 | 0.00 | 0.00 | 0.00 | 98 | 1018.9 |
| 20260902083518 | 70 | 0 | 0.0 | 0.0 | 0.00 | 0.00 | 0.00 | 98 | 1018.9 |
| 20260902082519 | 70 | 0 | 0.0 | 0.0 | 0.00 | 0.00 | 0.00 | 98 | 1018.6 |
| 20260902082019 | 70 | 0 | 0.0 | 0.0 | 0.00 | 0.00 | 0.00 | 98 | 1018.6 |
| 20260902081018 | 70 | 0 | 0.0 | 0.0 | 0.00 | 0.00 | 0.00 | 98 | 1018.4 |
| 20260902080516 | 70 | 0 | 0.0 | 2.0 | 0.00 | 0.00 | 0.00 | 98 | 1018.5 |
| 20260902075518 | 70 | 0 | 0.0 | 0.0 | 0.00 | 0.00 | 0.00 | 98 | 1018.6 |
| 20260902075019 | 70 | 0 | 0.0 | 0.0 | 0.00 | 0.00 | 0.00 | 98 | 1018.7 |
| 20260902074019 | 70 | 0 | 0.0 | 0.0 | 0.00 | 0.00 | 0.00 | 98 | 1018.6 |
| 20260902073522 | 70 | 0 | 0.0 | 0.0 | 0.00 | 0.00 | 0.00 | 98 | 1018.5 |
| 20260902072518 | 70 | 0 | 0.0 | 0.0 | 0.00 | 0.00 | 0.00 | 98 | 1018.6 |
| 20260902072018 | 70 | 0 | 0.0 | 0.0 | 0.00 | 0.00 | 0.00 | 98 | 1018.5 |
| 20260902071018 | 70 | 0 | 0.0 | 0.0 | 0.00 | 0.00 | 0.00 | 98 | 1018.5 |
| 20260902070517 | 70 | 0 | 0.0 | 0.0 | 0.00 | 0.00 | 0.00 | 98 | 1018.6 |
| 20260902070034 | 70 | 0 | 0.0 | 0.0 | 0.00 | 0.00 | 0.00 | 98 | 1018.6 |
| 20260902065018 | 70 | 0 | 0.0 | 0.0 | 0.00 | 0.00 | 0.00 | 98 | 1018.7 |
| 20260902064018 | 70 | 0 | 0.0 | 0.0 | 0.00 | 0.00 | 0.00 | 98 | 1018.6 |
| 20260902063518 | 70 | 0 | 0.0 | 0.0 | 0.00 | 0.00 | 0.00 | 98 | 1018.7 |
| 20260902063036 | 70 | 0 | 0.0 | 0.0 | 0.00 | 0.00 | 0.00 | 98 | 1018.7 |
| 20260902062520 | 70 | 0 | 0.0 | 0.0 | 0.00 | 0.00 | 0.00 | 98 | 1018.7 |
| 20260902062021 | 70 | 0 | 0.0 | 0.0 | 0.00 | 0.00 | 0.00 | 98 | 1018.7 |
| 20260902061019 | 70 | 0 | 0.0 | 0.0 | 0.00 | 0.00 | 0.00 | 98 | 1018.7 |
| 20260902060521 | 70 | 0 | 0.0 | 0.0 | 0.00 | 0.00 | 0.00 | 98 | 1018.7 |
| 20260902055524 | 70 | 0 | 0.0 | 0.0 | 0.00 | 0.00 | 0.00 | 98 | 1018.6 |
| 20260902055019 | 70 | 0 | 0.0 | 0.0 | 0.00 | 0.00 | 0.00 | 98 | 1018.7 |
| 20260902054017 | 70 | 0 | 0.0 | 0.0 | 0.00 | 0.00 | 0.00 | 98 | 1018.6 |
| 20260902053516 | 70 | 0 | 0.0 | 0.0 | 0.00 | 0.00 | 0.00 | 98 | 1018.6 |
| 20260902052517 | 70 | 0 | 0.0 | 0.0 | 0.00 | 0.00 | 0.00 | 98 | 1018.7 |
| 20260902051018 | 69 | 0 | 0.0 | 0.0 | 0.00 | 0.00 | 0.00 | 98 | 1018.7 |
| 20260902050520 | 69 | 0 | 0.0 | 0.0 | 0.00 | 0.00 | 0.00 | 98 | 1018.7 |
| 20260902045519 | 69 | 0 | 0.0 | 0.0 | 0.00 | 0.00 | 0.00 | 97 | 1018.7 |
| 20260902045016 | 69 | 0 | 0.0 | 0.0 | 0.00 | 0.00 | 0.00 | 97 | 1018.5 |
| 20260902044017 | 69 | 0 | 0.0 | 0.0 | 0.00 | 0.00 | 0.00 | 97 | 1018.5 |
| 20260902043518 | 69 | 0 | 0.0 | 0.0 | 0.00 | 0.00 | 0.00 | 97 | 1018.5 |
| 20260902042519 | 70 | 0 | 0.0 | 0.0 | 0.00 | 0.00 | 0.00 | 97 | 1018.5 |
| 20260902042019 | 70 | 0 | 0.0 | 0.0 | 0.00 | 0.00 | 0.00 | 97 | 1018.3 |
| 20260902041020 | 69 | 0 | 0.0 | 0.0 | 0.00 | 0.00 | 0.00 | 97 | 1018.2 |
| 20260902040520 | 70 | 0 | 0.0 | 0.0 | 0.00 | 0.00 | 0.00 | 97 | 1018.2 |
| 20260902035519 | 70 | 0 | 0.0 | 0.0 | 0.00 | 0.00 | 0.00 | 97 | 1018.1 |
| 20260902035017 | 70 | 0 | 0.0 | 0.0 | 0.00 | 0.00 | 0.00 | 97 | 1018.1 |
| 20260902034018 | 70 | 0 | 0.0 | 0.0 | 0.00 | 0.00 | 0.00 | 97 | 1017.9 |
| 20260902033518 | 70 | 0 | 0.0 | 0.0 | 0.00 | 0.00 | 0.00 | 97 | 1017.9 |
| 20260902033037 | 70 | 0 | 0.0 | 0.0 | 0.00 | 0.00 | 0.00 | 97 | 1017.9 |
| 20260902032519 | 70 | 0 | 0.0 | 0.0 | 0.00 | 0.00 | 0.00 | 97 | 1017.8 |
| 20260902031018 | 70 | 0 | 0.0 | 0.0 | 0.00 | 0.00 | 0.00 | 97 | 1017.7 |
| 20260902030517 | 70 | 0 | 0.0 | 0.0 | 0.00 | 0.00 | 0.00 | 97 | 1017.7 |
| 20260902025520 | 70 | 0 | 0.0 | 0.0 | 0.00 | 0.00 | 0.00 | 97 | 1017.6 |
| 20260902025019 | 70 | 0 | 0.0 | 0.0 | 0.00 | 0.00 | 0.00 | 97 | 1017.5 |
| 20260902024016 | 70 | 0 | 0.0 | 0.0 | 0.00 | 0.00 | 0.00 | 97 | 1017.2 |
| 20260902023518 | 71 | 0 | 0.0 | 0.0 | 0.00 | 0.00 | 0.00 | 97 | 1017.2 |
| 20260902022521 | 71 | 0 | 0.0 | 0.0 | 0.00 | 0.00 | 0.00 | 97 | 1017.2 |
| 20260902022018 | 71 | 0 | 0.0 | 0.0 | 0.00 | 0.00 | 0.00 | 97 | 1017.2 |
| 20260902021018 | 71 | 0 | 0.0 | 0.0 | 0.00 | 0.00 | 0.00 | 97 | 1017.3 |
| 20260902020519 | 71 | 0 | 0.0 | 0.0 | 0.00 | 0.00 | 0.00 | 97 | 1017.2 |
| 20260902015518 | 71 | 0 | 0.0 | 0.0 | 0.00 | 0.00 | 0.00 | 96 | 1017.1 |
| 20260902015017 | 72 | 0 | 0.0 | 0.0 | 0.00 | 0.00 | 0.00 | 97 | 1016.9 |
| 20260902014016 | 72 | 0 | 0.0 | 0.0 | 0.00 | 0.00 | 0.00 | 97 | 1017.1 |
| 20260902013516 | 72 | 0 | 0.0 | 0.0 | 0.00 | 0.00 | 0.00 | 97 | 1017.2 |
| 20260902013038 | 72 | 0 | 0.0 | 0.0 | 0.00 | 0.00 | 0.00 | 97 | 1017.2 |
| 20260902012518 | 73 | 0 | 0.0 | 0.0 | 0.00 | 0.00 | 0.00 | 97 | 1017.2 |
| 20260902012016 | 73 | 0 | 0.0 | 0.0 | 0.00 | 0.00 | 0.00 | 97 | 1017.1 |
| 20260902005519 | 73 | 0 | 0.0 | 0.0 | 0.00 | 0.00 | 0.00 | 97 | 1017.1 |
| 20260902005020 | 73 | 0 | 0.0 | 0.0 | 0.00 | 0.00 | 0.00 | 97 | 1016.9 |
| 20260902004019 | 73 | 0 | 0.0 | 0.0 | 0.00 | 0.00 | 0.00 | 97 | 1016.8 |
| 20260902003520 | 73 | 0 | 0.0 | 0.0 | 0.00 | 0.00 | 0.00 | 97 | 1016.5 |
| 20260902002520 | 73 | 0 | 0.0 | 0.0 | 0.00 | 0.00 | 0.00 | 96 | 1016.3 |
| 20260902002017 | 73 | 0 | 0.0 | 0.0 | 0.00 | 0.00 | 0.00 | 96 | 1016.3 |
| 20260902001548 | 73 | 0 | 0.0 | 0.0 | 0.00 | 0.00 | 0.00 | 96 | 1015.9 |
| 20260902001016 | 73 | 0 | 0.0 | 0.0 | 0.00 | 0.00 | 0.00 | 96 | 1015.9 |
| 20260902000516 | 73 | 0 | 0.0 | 0.0 | 0.00 | 0.00 | 0.00 | 96 | 1016.0 |
| 20260901235519 | 73 | 0 | 0.0 | 1.0 | 0.00 | 0.00 | 0.00 | 96 | 1015.8 |
| 20260901235018 | 73 | 0 | 0.0 | 1.0 | 0.00 | 0.00 | 0.00 | 96 | 1015.8 |
| 20260901234018 | 73 | 0 | 0.0 | 0.0 | 0.00 | 0.00 | 0.00 | 96 | 1016.1 |
| 20260901233517 | 73 | 0 | 0.0 | 1.0 | 0.00 | 0.00 | 0.00 | 95 | 1015.9 |
| 20260901232518 | 73 | 0 | 0.0 | 1.0 | 0.00 | 0.00 | 0.00 | 95 | 1016.0 |
| 20260901232019 | 73 | 0 | 0.0 | 1.0 | 0.00 | 0.00 | 0.00 | 95 | 1016.2 |
| 20260901231535 | 74 | 0 | 0.0 | 1.0 | 0.00 | 0.00 | 0.00 | 94 | 1015.7 |
| 20260901231017 | 74 | 0 | 0.0 | 0.0 | 0.00 | 0.00 | 0.00 | 95 | 1015.6 |
| 20260901230519 | 74 | 0 | 0.0 | 0.0 | 0.00 | 0.00 | 0.00 | 94 | 1015.8 |
| 20260901225518 | 75 | 0 | 0.0 | 0.0 | 0.00 | 0.00 | 0.00 | 94 | 1016.0 |
| 20260901225025 | 75 | 0 | 0.0 | 0.0 | 0.00 | 0.00 | 0.00 | 93 | 1016.2 |
| 20260901224536 | 75 | 0 | 0.0 | 1.0 | 0.00 | 0.00 | 0.00 | 93 | 1016.3 |